Regional Weather Roundup
Issued by NWS

Home | Current Version | Previous Version | Graphics & Text | Print | Product List | Glossary On
Versions: 1 2 3 4 5 6 7 8 9 10 11 12 13 14 15 16 17 18 19 20 21 22 23 24 25 26 27 28 29 30 31 32 33 34 35 36 37 38 39 40 41 42 43 44 45 46 47 48 49 50
000
ASUS43 KDMX 281604
RWRIA

WEATHER ROUNDUP FOR IOWA
NATIONAL WEATHER SERVICE DES MOINES IA
  ISSUED BY NWS QUAD CITIES IA IL
1000 AM CST SAT FEB 28 2015

NOTE: "FAIR" INDICATES FEW OR NO CLOUDS BELOW 12,000 FEET WITH NO
SIGNIFICANT WEATHER AND/OR OBSTRUCTIONS TO VISIBILITY.

* - THESE STATIONS ARE NOT NWS STATIONS...THUS NOT UNDER NWS
QUALITY CONTROL.  THEY ALSO DO NOT REPORT WEATHER SUCH
AS PRECIPITATION OR FOG.

IAZ001>003-012>014-020>022-031>034-043>046-281700-
   NORTHWEST IOWA

CITY           SKY/WX    TMP DP  RH WIND       PRES   REMARKS
CARROLL *      SUNNY     12   3  67 S9        30.49F WCI   0
CHEROKEE *     SUNNY     11   4  72 S9        30.46S WCI  -2
DENNISON *     SUNNY     14   5  67 S10       30.46S WCI   1
LE MARS *      SUNNY     16   7  67 S13       30.44F WCI   2
ORANGE CITY *  SUNNY     14   5  67 S12       30.41S WCI   0
SHELDON *      SUNNY     12   3  67 S13       30.41S WCI  -3
SIOUX CITY     SUNNY     15   7  70 SE9       30.45F WCI   3
SPENCER        SUNNY      9   1  70 S14       30.45S WCI  -7
STORM LAKE *   SUNNY      9   1  72 S13       30.45F WCI  -7
$$

IAZ055>058-069>071-079>083-090>094-281700-
   SOUTHWEST IOWA

CITY           SKY/WX    TMP DP  RH WIND       PRES   REMARKS
ATLANTIC *     SUNNY     16   7  67 S10       30.49F WCI   3
AUDUBON *      SUNNY     16   7  67 S7        30.48S WCI   6
CLARINDA *     MOSUNNY   19  10  68 S9        30.53F WCI   9
COUNCIL BLFS * SUNNY     16   9  73 S9        30.46F WCI   4
CRESTON *      MOSUNNY   14   9  79 SE9       30.50S WCI   2
HARLAN *       SUNNY     14   9  79 S8        30.52S WCI   3
LAMONI         MOSUNNY   16   7  67 SE5       30.51F WCI   9
RED OAK *      MOSUNNY   18  10  73 SE10      30.50F WCI   6
SHENANDOAH *   MOSUNNY   19  10  68 SE10      30.51F WCI   8
$$

IAZ047>049-059>061-072>074-084-281700-
   CENTRAL IOWA

CITY           SKY/WX    TMP DP  RH WIND       PRES   REMARKS
AMES           SUNNY      6  -1  73 SE8       30.55F WCI  -7
ANKENY *       SUNNY     10   0  61 SE8       30.56F WCI  -1
BOONE *        SUNNY      9   1  72 SE7       30.51F WCI  -3
CHARITON *     SUNNY     14   5  67 SE8       30.54S WCI   3
DES MOINES     MOSUNNY   13   1  59 S8        30.55F WCI   2
GRINNELL *     SUNNY      8  -1  69 E8        30.56F WCI  -5
KNOXVILLE *    MOSUNNY   12   0  57 SE7       30.54F WCI   2
MARSHALLTOWN   FAIR       3  -3  76 SE9       30.56F WCI -12
NEWTON *       MOSUNNY    9  -2  61 SE9       30.56F WCI  -5
PELLA *        SUNNY     11   4  71 SE7       30.58S WCI   1
PERRY *          N/A     13   5  72 S8        30.52F WCI   1
$$

IAZ004>006-015-016-023>025-035-036-281700-
   NORTH CENTRAL IOWA

CITY           SKY/WX    TMP DP  RH WIND       PRES   REMARKS
ALGONA *       SUNNY      5   0  78 S14       30.51R WCI -12
CLARION *      SUNNY      7   0  72 S12       30.53S WCI  -9
ESTHERVILLE    SUNNY      3  -1  83 S13       30.46R WCI -14
FORT DODGE *   SUNNY     10   3  72 S8        30.52S WCI  -1
MASON CITY     SUNNY     -1  -7  75 S10       30.55R WCI -17
FOREST CITY *  FAIR       7   1  78 S13       30.51S WCI  -9
WEBSTER CITY * SUNNY      7   0  72 SE9       30.51F WCI  -7
IOWA FALLS *   FAIR       0  -3  85 SE8       30.55F WCI -14
$$

IAZ007>011-017>019-026>030-037>042-050>054-066-281700-
   NORTHEAST IOWA

CITY           SKY/WX    TMP DP  RH WIND       PRES   REMARKS
CEDAR RAPIDS   SUNNY      4  -1  80 E6        30.61F WCI  -7
CHARLES CITY * SUNNY      1  -4  78 S14       30.57S WCI -17
CLINTON *      SUNNY      3   1  92 SE6       30.69S WCI  -8
DECORAH *      SUNNY      1  -6  71 S10       30.57F WCI -14
DUBUQUE        SUNNY      3  -4  72 S9        30.62F WCI -12
MONTICELLO *   SUNNY      0  -4  85 SE7       30.64F WCI -13
OELWEIN *      SUNNY      1  -4  78 SE12      30.60S WCI -15
WATERLOO       SUNNY      3  -3  76 SE9       30.60F WCI -12
$$

IAZ064-065-067-068-078-281700-
   EAST CENTRAL IOWA

CITY           SKY/WX    TMP DP  RH WIND       PRES   REMARKS
DAVENPORT      SUNNY      7  -1  70 E7        30.66F WCI  -5
IOWA CITY      SUNNY      3  -3  76 SE6       30.66F WCI  -8
MT. PLEASANT * SUNNY     10   1  66 CALM      30.62F
MUSCATINE *    SUNNY      1  -2  85 CALM      30.67F
QUAD CITIES    SUNNY      9  -2  61 SE10      30.67F WCI  -5
$$

IAZ062-063-075>077-085>089-095>099-281700-
   SOUTHEAST IOWA

CITY           SKY/WX    TMP DP  RH WIND       PRES   REMARKS
BURLINGTON     SUNNY     13   2  61 SE7       30.62F WCI   3
FAIRFIELD *    SUNNY     10   0  61 SE9       30.60F WCI  -2
FORT MADISON * SUNNY     14   3  62 SE8       30.62F WCI   3
KEOKUK *       SUNNY     14   3  62 SE10      30.61F WCI   1
OSKALOOSA *    FAIR      10   2  69 SE9       30.59F WCI  -3
CENTERVILLE *  FAIR      18   7  62 SE7       30.56S WCI   8
OTTUMWA        SUNNY     11   2  67 E8        30.58F WCI  -1
WASHINGTON *   SUNNY      7   7 100 E7        30.62F WCI  -5
$$

ABBREVIATIONS USED IN REMARKS
   TC - TEMPERATURES IN CELSIUS
  WCI - WIND CHILL INDEX
   HX - HEAT INDEX
  VSB - VISIBILITY
$$



USA.gov is the U.S. government's official web portal to all federal, state and local government web resources and services.